Regional Weather Roundup
Issued by NWS Mt. Holly, NJ

Home | Current Version | Previous Version | Text Only | Print | Product List | Glossary On
Versions: 1 2 3 4 5 6 7 8 9 10 11 12 13 14 15 16 17 18 19 20 21 22 23 24 25 26 27 28 29 30 31 32 33 34 35 36 37 38 39 40 41 42 43 44 45 46 47 48 49 50
000
ASUS41 KPHI 051012
RWRPHI

REGIONAL WEATHER ROUNDUP
NATIONAL WEATHER SERVICE MOUNT HOLLY NJ
600 AM EDT WED AUG 05 2015

NOTE:  "FAIR" INDICATES FEW OR NO CLOUDS BELOW 12,000 FEET WITH NO
SIGNIFICANT WEATHER AND/OR OBSTRUCTIONS TO VISIBILITY.

 * = STATION DOES NOT REPORT PRECIPITATION (E.G. RAIN, SNOW, ETC.)
        OR FOG.

NJZ015>026-051100-
SOUTHERN NEW JERSEY

CITY           SKY/WX    TMP DP  RH WIND       PRES   REMARKS
POMONA         PTCLDY    70  68  93 W3        29.91R
RIO GRANDE*    PTCLDY    70  66  88 CALM      29.93R
MILLVILLE      PTCLDY    68  67  96 CALM      29.91R FOG
WRIGHTSTOWN    PTCLDY    64  59  85 CALM      29.89R
MOUNT HOLLY      N/A     65  61  87 CALM      29.90S
TRENTON        PTCLDY    64  57  78 NW3       29.91R

$$
NJZ001>014-051100-
NORTHERN NEW JERSEY

CITY           SKY/WX    TMP DP  RH WIND       PRES   REMARKS
SUSSEX         CLEAR     56  55  97 CALM      29.93R
ANDOVER*         N/A     59  58  96 CALM      29.93S
MORRISTOWN     PTCLDY    57  54  88 CALM      29.91S
NEWARK         PTCLDY    71  59  65 CALM      29.89S
TETERBORO      PTCLDY    69  58  67 CALM      29.89R
CALDWELL       PTCLDY    63  58  83 CALM      29.91S
SOMERVILLE     MOCLDY    59  56  89 CALM      29.89S
ALLAIRE*       CLEAR     66  54  63 CALM      29.91R
TOMS RIVER*      N/A     63  59  88 CALM      29.91R

$$
PAZ043-044-047-054-055-060>062-066>071-051100-
EASTERN PENNSYLVANIA

CITY           SKY/WX    TMP DP  RH WIND       PRES   REMARKS
PHILADELPHIA   MOCLDY    76  64  66 NW5       29.91S
NORTH PHILA    PTCLDY    71  54  54 NW5       29.92S
BLUE BELL      PTCLDY    61  59  94 CALM      29.92R
DOYLESTOWN     PTCLDY    61  56  83 CALM      29.92R
QUAKERTOWN*    MOCLDY    57  55  94 CALM      29.94R
POTTSTOWN      MOCLDY    61  58  90 CALM      29.94S
LANCASTER      MOCLDY    61  59  93 E3        29.93F
COATESVILLE    PTCLDY    68  55  64 W5        29.94F
READING        MOCLDY    62  58  86 CALM      29.93R
ALLENTOWN      MOCLDY    61  58  90 CALM      29.93S
MOUNT POCONO   PTCLDY    52  50  93 N7        29.97F
HAZLETON       PTCLDY    52  52 100 CALM      30.00S FOG
WILKES BARRE   CLEAR     60  55  83 E5        29.95R

$$
DEZALL-MDZ008-012-015-019-020-051100-
DELAWARE AND EASTERN MARYLAND

CITY           SKY/WX    TMP DP  RH WIND       PRES   REMARKS
WILMINGTON     PTCLDY    70  66  87 W7        29.92S
DOVER          MOCLDY    72  72 100 SW3       29.90R
GEORGETOWN     MOCLDY    68  67  96 CALM      29.92R
EASTON         MOCLDY    70  70 100 CALM      29.95S FOG
ABERDEEN       MOCLDY    66  64  94 CALM      29.93  FOG
PATUXENT       MOCLDY    76  72  87 N3        29.92S
OCEAN CITY       N/A    N/A N/A N/A MISG      29.93R
WALLOPS ISLAND MOCLDY    73  73 100 W6        29.91S
CAMBRIDGE      MOCLDY    72  70  94 SE3       29.92S
SALISBURY      MOCLDY    70  70 100 NW3       29.92S

$$
PAZ001-021-NYZ056-072-MDZ011-DCZ001-051100-
OTHER NEARBY LOCATIONS

CITY           SKY/WX    TMP DP  RH WIND       PRES   REMARKS
HARRISBURG     CLOUDY    67  59  75 N5        29.93S
STATE COLLEGE  PTCLDY    57  54  88 SW6       29.98S
WILLIAMSPORT   CLEAR     58  55  90 CALM      29.95R
BINGHAMTON     PTCLDY    57  55  93 W5        29.95S
NEW YORK CITY  PTCLDY    73  58  59 CALM      29.92S
BALTIMORE      MOCLDY    68  67  96 CALM      29.93R
WASHINGTON DC  CLOUDY    77  69  76 CALM      29.95R

$$


USA.gov is the U.S. government's official web portal to all federal, state and local government web resources and services.